Regional Weather Roundup
Issued by NWS

Home | Current Version | Previous Version | Text Only | Print | Product List | Glossary On
Versions: 1 2 3 4 5 6 7 8 9 10 11 12 13 14 15 16 17 18 19 20 21 22 23 24 25 26 27 28 29 30 31 32 33 34 35 36 37 38 39 40 41 42 43 44 45 46 47 48 49 50
000
ASUS43 KMKX 271321
RWRWI

WISCONSIN REGIONAL WEATHER ROUNDUP
NATIONAL WEATHER SERVICE MILWAUKEE/SULLIVAN WI
800 AM CDT THU JUL 27 2017

NOTE: "FAIR" INDICATES FEW OR NO CLOUDS BELOW 12,000 FEET WITH NO
SIGNIFICANT WEATHER AND/OR OBSTRUCTIONS TO VISIBILITY.

WIZ001-002-006>008-014>016-023>028-271400-
NORTHWEST WISCONSIN

CITY           SKY/WX    TMP DP  RH WIND       PRES   REMARKS
SUPERIOR ARPT  NOT AVBL
ASHLAND        SUNNY     67  61  81 CALM      30.08R
HAYWARD        SUNNY     63  58  83 NE5       30.08S
SIREN          SUNNY     65  61  85 CALM      30.08S
CUMBERLAND     SUNNY     64  59  82 N6        30.08R
RICE LAKE      SUNNY     65  64  98 N3        30.09R
CHETEK         SUNNY     66  63  91 NW3       30.07S
LADYSMITH      SUNNY     65  62  87 N5        30.09R
EAU CLAIRE     SUNNY     68  63  84 NE5       30.05R
MENOMONIE      SUNNY     67  64  90 N5        30.06R
NEW RICHMOND   SUNNY     67  65  93 CALM      30.08R
OSCEOLA        SUNNY     65  65 100 CALM      30.11R
$$

WIZ003>005-009-010-017-018-271400-
NORTH CENTRAL WISCONSIN

CITY           SKY/WX    TMP DP  RH WIND       PRES   REMARKS
MANITOWISH WTR SUNNY     66  61  85 CALM      30.08S
ARBOR VITAE    SUNNY     68  61  77 NE5       30.07S
WOODRUFF       SUNNY     68  61  77 NE5       30.07S
RHINELANDER    MOSUNNY   66  60  81 CALM      30.08S
EAGLE RIVER    SUNNY     65  59  82 CALM      30.08R
LAND O LAKES   SUNNY     67  57  71 N6        30.10S
PHILLIPS       SUNNY     66  61  85 CALM      30.08S
TOMAHAWK         N/A     61  60  96 CALM      30.08R
MEDFORD        SUNNY     64  60  88 NE7       30.07R
MERRILL        SUNNY     63  63 100 CALM      30.07R
$$

WIZ029-030-035-036-043>047-271400-
CENTRAL WISCONSIN

CITY           SKY/WX    TMP DP  RH WIND       PRES   REMARKS
WAUSAU         SUNNY     66  60  81 N5        30.04R
MOSINEE        SUNNY     64  61  88 N6        30.06R
MARSHFIELD     SUNNY     69  59  70 NE7       30.04S
STEVENS POINT  SUNNY     64  59  82 N5        30.05R
WAUPACA        SUNNY     69  64  82 N5        30.03S
WAUTOMA        SUNNY     70  63  78 NE7       30.03R
WISC RAPIDS    SUNNY     70  60  70 E6        30.05R
CAMP DOUGLAS   SUNNY     68  64  88 CALM      30.03R
$$

WIZ011>013-019>022-031-037>040-048>050-271400-
NORTHEAST WISCONSIN

CITY           SKY/WX    TMP DP  RH WIND       PRES   REMARKS
ANTIGO         SUNNY     64  60  86 NE5       30.07R
SHAWANO        SUNNY     70  60  70 NE5       30.04R
OCONTO         SUNNY     67  59  76 N6        30.02R
STURGEON BAY     N/A     70  64  81 N8        30.02R
GREEN BAY      SUNNY     70  65  84 NE7       30.02R
MANITOWOC      SUNNY     70  60  70 N6        30.01R
APPLETON       SUNNY     68  64  88 N7        30.01R
CLINTONVILLE   SUNNY    N/A N/A N/A NE5       30.03S
OSHKOSH        SUNNY     72  62  71 NE9       30.01R
$$

WIZ032>034-041-042-053>061-271400-
SOUTHWEST WISCONSIN

CITY           SKY/WX    TMP DP  RH WIND       PRES   REMARKS
LA CROSSE      SUNNY     71  67  87 N7        30.03R
SPARTA         SUNNY     62  62 100 CALM      30.04S
VIROQUA        SUNNY     68  64  84 CALM      30.04R
BOSCOBEL       SUNNY     72  67  84 NE3       30.01R
PRAIRIE DU CHI SUNNY     73  64  73 N5        30.00S
PLATTEVILLE    MOSUNNY   70  70 100 N9        30.00S
$$

WIZ056-057-062-063-064-067-068-271400-
SOUTH CENTRAL WISCONSIN

CITY           SKY/WX    TMP DP  RH WIND       PRES   REMARKS
REEDSBURG      SUNNY     67  66  95 NE6       30.02R
BARABOO/DELLS  SUNNY     68  63  84 NE5       30.02S
LONE ROCK      SUNNY     71  67  87 NE9       30.00R
MINERAL POINT  MOSUNNY   72  72 100 NE8       30.01S
MADISON        MOSUNNY   71  68  90 NE7       29.99R
MIDDLETON      CLOUDY    70  70 100 NE5       30.01R
WATERTOWN      MOSUNNY   71  71 100 NE9       29.98S
MONROE         CLOUDY    70  70 100 N8        29.98S
JANESVILLE     PTSUNNY   72  72 100 NE8       29.96S FOG
$$

WIZ051-052-058>065-066-070>072-271400-
SOUTHEAST WISCONSIN

CITY           SKY/WX    TMP DP  RH WIND       PRES   REMARKS
MILWAUKEE      CLOUDY    71  70  96 N15       29.96R FOG
WAUKESHA       CLOUDY    68  68 100 NE7       29.99R FOG
MILWAUKEE/TIMM MOSUNNY   70  66  88 NE7       29.99R
RACINE         CLOUDY    72  70  93 N12       29.97S
KENOSHA        PTSUNNY   74  69  85 N7        29.96S
FOND DU LAC    SUNNY     72  56  57 NE8       30.01R
SHEBOYGAN      SUNNY     71  64  78 NE7       30.00R
WEST BEND      SUNNY     70  63  78 NE8       30.00R
JUNEAU         SUNNY     70  63  78 N8        30.01R
$$

LSZ147-162-271400-
LAKE SUPERIOR

STATION/POSITION TIME  TEMP    WIND        PRES    WAVE
                       AIR SEA DIR/SP/G            HT/PER
                 (UTC) (F)     (DEG/KT/KT) (MB)    (FT/S)
W MID LAKE BUOY  1250   56 52   30/  8/ 10 1018.1R   0
DEVILS ISLAND    1300   65     270/  4/  5 1018.4R
SAXON HARBOR     1240   64     180/  1/  2 1017.6S
$$

LMZ867-665-643>646-271400-
LAKE MICHIGAN

STATION/POSITION TIME  TEMP    WIND        PRES    WAVE
                       AIR SEA DIR/SP/G            HT/PER
                 (UTC) (F)     (DEG/KT/KT) (MB)    (FT/S)
CHAMBERS ISLAND  1240   69      10/ 13/ 14 1015.9R
S GREEN BAY BUOY 1300   68 71   30/ 10/ 10 1016.1
N MID LAKE BUOY  1250   65 65   10/ 12/ 16 1016.4R   1/ 5
NORTHPORT PIER   1240   67     360/  8/ 10 1016.3R
KEWAUNEE LAKESHO 1254   71      20/  3/  7 1015.3R
SHEBOYGAN LAKESH 1300   69      10/ 11/ 13 1015.2R
PORT WASHINGTON  1230   73      30/  8/ 13 1015.9R
ATWATER BUOY     1209   69 69   10/ 10/ 12 1014.9R
MILWAUKEE LAKESH 1300   69      20/ 12/ 14   N/A
S MID LAKE BUOY  1250   71 71   20/  8/ 10 1013.6F   0
KENOSHA   LAKESH 1300   69      10/ 12/ 14 1014.2
$$

TC  - TEMPERATURE IN CELSIUS
VSB - VISIBILITY IN STATUTE MILES
WCI - WIND CHILL INDEX
HX  - HEAT INDEX





USA.gov is the U.S. government's official web portal to all federal, state and local government web resources and services.